EST,Max TemperatureF,Mean TemperatureF,Min TemperatureF,Max Dew PointF,MeanDew PointF,Min DewpointF,Max Humidity, Mean Humidity, Min Humidity, Max Sea Level PressureIn, Mean Sea Level PressureIn, Min Sea Level PressureIn, Max VisibilityMiles, Mean VisibilityMiles, Min VisibilityMiles, Max Wind SpeedMPH, Mean Wind SpeedMPH, Max Gust SpeedMPH,PrecipitationIn, CloudCover, Events, WindDirDegrees
2013-2-1,19,14,11,14,8,5,88,78,69,30.27,30.18,29.97,10,4,1,17,12,31,0.00,8,Snow,251
2013-2-2,24,16,9,22,13,5,95,82,69,30.16,30.03,29.97,10,4,0,15,9,22,0.00,8,Snow,61
2013-2-3,23,18,12,16,12,6,91,75,62,30.01,29.94,29.89,10,7,1,18,6,25,0.00,8,Snow,282
2013-2-4,24,18,11,20,18,10,94,86,69,30.00,29.92,29.86,10,6,1,10,5,16,0.00,7,Snow,46
2013-2-5,30,18,7,28,19,5,95,86,72,30.00,29.87,29.79,10,7,0,14,5,23,0.00,6,Snow,249
2013-2-6,34,22,12,23,19,10,96,69,51,30.24,30.17,30.02,10,9,2,12,5,16,0.00,5,,184
2013-2-7,33,30,28,32,27,22,99,87,72,30.18,30.01,29.83,10,4,1,10,5,,0.00,8,Rain-Snow,110
2013-2-8,32,24,15,32,24,14,99,86,68,30.36,30.14,29.83,10,8,2,15,6,20,0.00,5,Snow,355
2013-2-9,33,20,7,21,17,4,94,79,59,30.40,30.31,30.15,10,9,1,10,3,,0.00,1,,144
2013-2-10,46,36,28,42,29,19,96,78,65,30.14,29.86,29.54,10,9,3,18,8,28,0.00,6,Rain,143
2013-2-11,48,40,31,44,29,22,93,75,65,29.94,29.69,29.52,10,9,0,25,17,36,0.00,8,Snow,246
2013-2-12,31,30,28,24,23,21,80,76,70,30.07,30.00,29.93,10,10,10,16,11,24,0.00,8,,264
2013-2-13,40,31,22,30,25,21,96,80,63,29.93,29.79,29.71,10,8,3,9,4,,0.00,1,,211
2013-2-14,40,34,27,33,31,27,96,85,72,29.92,29.74,29.65,10,8,2,22,8,31,0.00,7,Rain-Snow,235
2013-2-15,29,28,23,27,19,10,93,73,49,30.14,30.07,29.92,10,7,1,15,6,21,0.00,8,Snow,334
2013-2-16,24,20,17,20,12,5,89,69,53,30.11,30.08,30.05,10,7,0,15,7,25,0.00,8,Snow,312
2013-2-17,26,12,-1,14,8,-5,90,71,48,30.21,30.14,30.10,10,9,1,8,2,,0.00,4,Snow,143
2013-2-18,47,34,21,43,26,10,94,64,52,30.09,29.77,29.41,10,10,4,22,11,32,0.00,4,Rain,160
2013-2-19,39,31,18,42,20,11,95,84,73,30.03,29.74,29.40,10,4,0,22,18,34,0.00,8,Rain-Snow,266
2013-2-20,24,20,17,18,15,11,88,76,69,30.30,30.20,30.04,10,5,1,17,13,28,0.00,8,Snow,324
2013-2-21,27,24,21,18,17,15,82,74,67,30.36,30.28,30.10,10,10,10,22,6,30,0.00,7,,72
2013-2-22,33,28,22,32,24,15,96,86,71,30.10,29.91,29.82,10,6,1,21,14,31,0.00,8,Rain-Snow,145
2013-2-23,31,30,28,26,21,18,83,73,65,29.92,29.89,29.85,10,9,4,16,12,23,0.00,8,Snow,243
2013-2-24,34,26,19,28,24,18,96,81,70,30.14,30.04,29.91,10,9,4,12,7,18,0.00,5,Snow,272
2013-2-25,39,26,14,25,19,13,96,75,46,30.20,30.14,30.05,10,8,4,7,2,,0.00,0,,100
2013-2-26,36,33,30,32,26,20,97,78,55,30.05,29.71,29.48,10,7,1,21,10,38,0.00,4,Rain-Snow,74
2013-2-27,36,34,32,33,32,32,99,96,87,29.61,29.53,29.47,7,4,0,9,3,,0.00,8,Rain-Snow,350
2013-2-28,35,33,31,32,30,25,96,88,79,29.99,29.82,29.62,10,10,5,16,9,28,0.00,8,Rain-Snow,354